{"data":{"norad_id":28945,"intl_designator":"2006-007A","name":"SPAINSAT","alt_names":[],"object_type":"PAYLOAD","status":"ACTIVE","operator":null,"country":"SPN","launch_date":"2006-03-11","launch_site_code":"FRGUI","launch_vehicle":null,"mission":null,"orbit_class":"UNKNOWN","rcs_meters":26.7038,"size_class":null,"mass_kg":null,"dimensions":null,"purposes":["comms"],"wikipedia_slug":null,"has_3d_model":false,"image_url":null,"decayed_at":null,"tle_current":{"epoch":"2026-09-19T02:08:46.326048Z","epoch_age_seconds":136287,"freshness":"FRESH","line1":"1 28945U 06007A   26262.08942507 -.00000221  00000+0  00000+0 0  9998","line2":"2 28945   0.7990  84.8419 0004850  95.9571 179.2116  1.00272082 75159","mean_motion":1.00272082,"eccentricity":0.000485,"inclination_deg":0.799,"raan_deg":84.8419,"arg_perigee_deg":95.9571,"mean_anomaly_deg":179.2116,"bstar":0,"rev_number":7515,"period_min":1436.092650395,"perigee_km":35766.061846895,"apogee_km":35806.961556135,"semimajor_km":42164.648701515,"source":"CELESTRAK","updated_at":"2026-09-20T09:00:35.126400Z"}}}